TimeMDT,TemperatureF,Dew PointF,Humidity,Sea Level PressureIn,VisibilityMPH,Wind Direction,Wind SpeedMPH,Gust SpeedMPH,PrecipitationIn,Events,Conditions,WindDirDegrees,DateUTC
12:07 AM,30.2,30.2,100,29.86,1.5,Calm,Calm,-,0.00,Snow,Light Snow,0,2013-04-17 06:07:00
12:34 AM,30.2,30.2,100,29.85,3.0,North,4.6,-,0.01,Snow,Light Snow,360,2013-04-17 06:34:00
12:53 AM,30.0,30.0,100,29.84,2.5,WNW,8.1,-,0.01,Snow,Light Snow,290,2013-04-17 06:53:00
1:08 AM,30.2,30.2,100,29.85,3.0,WNW,3.5,-,0.01,Snow,Light Snow,290,2013-04-17 07:08:00
1:20 AM,30.2,30.2,100,29.84,2.5,WNW,5.8,-,0.01,Snow,Light Snow,290,2013-04-17 07:20:00
1:32 AM,30.2,30.2,100,29.84,2.0,WNW,4.6,-,0.01,Snow,Light Snow,290,2013-04-17 07:32:00
1:53 AM,30.0,30.0,100,29.82,2.0,WNW,5.8,-,0.01,Snow,Light Snow,290,2013-04-17 07:53:00
2:44 AM,30.2,30.2,100,29.82,4.0,West,5.8,-,0.01,Snow,Light Snow,270,2013-04-17 08:44:00
2:53 AM,30.0,30.0,100,29.80,3.0,WNW,3.5,-,0.01,Snow,Light Snow,300,2013-04-17 08:53:00
3:38 AM,30.2,30.2,100,29.81,2.0,WNW,4.6,-,0.00,Snow,Light Snow,290,2013-04-17 09:38:00
3:48 AM,30.2,30.2,100,29.81,1.5,West,3.5,-,0.01,Snow,Light Snow,260,2013-04-17 09:48:00
3:53 AM,30.0,30.0,100,29.78,1.5,Calm,Calm,-,0.01,Snow,Light Snow,0,2013-04-17 09:53:00
4:12 AM,30.2,30.2,100,29.80,2.0,Calm,Calm,-,0.00,Snow,Light Snow,0,2013-04-17 10:12:00
4:22 AM,30.2,30.2,100,29.80,1.2,WNW,3.5,-,0.01,Snow,Light Snow,290,2013-04-17 10:22:00
4:29 AM,30.2,30.2,100,29.80,0.8,WNW,3.5,-,0.02,Snow,Light Snow,290,2013-04-17 10:29:00
4:53 AM,28.9,28.9,100,29.78,0.5,NNW,4.6,-,0.04,Fog-Snow,Snow,340,2013-04-17 10:53:00
5:53 AM,28.0,28.0,100,29.78,0.8,Calm,Calm,-,0.09,Snow,Light Snow,0,2013-04-17 11:53:00
6:02 AM,28.4,28.4,100,29.79,1.2,Calm,Calm,-,0.00,Snow,Light Snow,0,2013-04-17 12:02:00
6:11 AM,28.4,28.4,100,29.79,2.0,Calm,Calm,-,0.01,Snow,Light Snow,0,2013-04-17 12:11:00
6:25 AM,28.4,28.4,100,29.79,2.0,Calm,Calm,-,0.01,Snow,Light Snow,0,2013-04-17 12:25:00
6:39 AM,28.4,28.4,100,29.79,2.0,NW,4.6,-,0.01,,Overcast,310,2013-04-17 12:39:00
6:46 AM,28.4,28.4,100,29.79,7.0,West,4.6,-,0.01,,Overcast,280,2013-04-17 12:46:00
6:53 AM,28.0,28.0,100,29.79,3.0,WNW,4.6,-,0.01,Snow,Light Snow,290,2013-04-17 12:53:00
7:10 AM,28.4,28.4,100,29.80,3.0,WNW,5.8,-,0.00,Snow,Light Snow,290,2013-04-17 13:10:00
7:37 AM,26.6,26.6,100,29.81,2.0,West,10.4,-,0.01,Snow,Light Snow,280,2013-04-17 13:37:00
7:51 AM,26.6,26.6,100,29.82,1.5,West,11.5,-,0.03,Snow,Light Snow,280,2013-04-17 13:51:00
7:52 AM,26.1,26.1,100,29.85,1.5,WNW,9.2,-,0.03,Snow,Light Snow,290,2013-04-17 13:52:00
8:02 AM,26.6,26.6,100,29.83,1.5,West,13.8,18.4,0.00,Snow,Light Snow,280,2013-04-17 14:02:00
8:19 AM,26.6,26.6,100,29.83,1.5,West,11.5,-,0.03,Snow,Light Snow,280,2013-04-17 14:19:00
8:53 AM,26.1,26.1,100,29.89,1.0,West,9.2,-,0.10,Snow,Light Snow,280,2013-04-17 14:53:00
8:59 AM,26.6,26.6,100,29.85,0.2,West,11.5,-,0.01,Fog-Snow,Snow,280,2013-04-17 14:59:00
9:06 AM,26.6,26.6,100,29.85,1.0,West,9.2,-,0.03,Snow,Light Snow,280,2013-04-17 15:06:00
9:33 AM,26.6,26.6,100,29.85,3.0,Calm,Calm,-,0.04,Snow,Light Snow,0,2013-04-17 15:33:00
9:53 AM,27.0,27.0,100,29.91,4.0,Calm,Calm,-,0.04,Snow,Light Snow,0,2013-04-17 15:53:00
10:00 AM,26.6,26.6,100,29.88,6.0,Calm,Calm,-,0.00,Snow,Light Snow,0,2013-04-17 16:00:00
10:49 AM,28.4,26.6,93,29.90,1.8,WSW,3.5,-,0.00,Snow,Light Snow,250,2013-04-17 16:49:00
10:53 AM,28.9,26.1,89,29.95,1.5,Calm,Calm,-,0.00,Snow,Light Snow,0,2013-04-17 16:53:00
11:03 AM,28.4,26.6,93,29.90,1.5,Calm,Calm,-,0.00,Snow,Light Snow,0,2013-04-17 17:03:00
11:23 AM,28.4,26.6,93,29.91,9.0,SW,3.5,-,0.00,,Overcast,220,2013-04-17 17:23:00
11:53 AM,30.9,25.0,79,29.95,10.0,WSW,4.6,-,0.00,,Mostly Cloudy,240,2013-04-17 17:53:00
12:53 PM,35.1,24.1,64,29.95,10.0,West,5.8,-,N/A,,Mostly Cloudy,260,2013-04-17 18:53:00
1:53 PM,34.0,21.0,59,29.96,10.0,Variable,3.5,-,N/A,,Overcast,0,2013-04-17 19:53:00
2:53 PM,36.0,21.9,57,29.97,10.0,NNW,8.1,-,N/A,,Overcast,340,2013-04-17 20:53:00
3:53 PM,37.0,21.9,54,29.98,10.0,NNE,17.3,-,N/A,,Overcast,20,2013-04-17 21:53:00
4:53 PM,36.0,19.9,52,30.00,10.0,NNE,19.6,-,N/A,,Mostly Cloudy,20,2013-04-17 22:53:00
5:53 PM,35.1,18.0,50,30.04,10.0,North,16.1,-,N/A,,Overcast,10,2013-04-17 23:53:00
6:53 PM,34.0,18.0,52,30.07,10.0,NNE,11.5,-,N/A,,Partly Cloudy,30,2013-04-18 00:53:00
7:53 PM,33.1,16.0,50,30.09,10.0,NNE,9.2,-,N/A,,Mostly Cloudy,20,2013-04-18 01:53:00
8:53 PM,30.9,18.0,59,30.12,10.0,North,10.4,-,N/A,,Mostly Cloudy,350,2013-04-18 02:53:00
9:53 PM,30.0,17.1,59,30.15,10.0,North,6.9,-,N/A,,Partly Cloudy,10,2013-04-18 03:53:00
10:53 PM,28.0,19.0,69,30.18,10.0,NNE,4.6,-,N/A,,Clear,20,2013-04-18 04:53:00
11:53 PM,27.0,19.0,72,30.19,10.0,NE,4.6,-,N/A,,Partly Cloudy,50,2013-04-18 05:53:00